EW3156 Weather Reports


Display with metric or nautical units.
time (UTC)temp
F
wind
direction
speed
MPH
gust
MPH
rain 1hr
in
rain 24hr
in
rain mn
in
humidity
%
barometer
mb
20260507203043 70 107 0.0 3.0 0.00 0.60 0.15 76 1013.2
20260507201543 69 117 1.0 4.0 0.00 0.60 0.15 75 1013.3
20260507200051 70 254 0.0 6.0 0.00 0.60 0.15 76 1013.4
20260507194549 70 63 0.0 4.0 0.00 0.60 0.15 75 1013.4
20260507193039 70 276 1.0 6.0 0.00 0.60 0.15 76 1013.4
20260507191536 68 142 1.0 5.0 0.00 0.60 0.15 78 1013.6
20260507190043 66 277 1.0 8.0 0.00 0.60 0.15 82 1013.6
20260507184542 66 249 1.0 3.0 0.00 0.60 0.15 82 1013.7
20260507183030 65 155 0.0 6.0 0.00 0.60 0.15 85 1014.0
20260507181529 64 160 0.0 5.0 0.00 0.60 0.15 86 1014.3
20260507180028 64 257 0.0 6.0 0.00 0.60 0.15 89 1014.2
20260507174532 63 304 0.0 4.0 0.00 0.60 0.15 88 1014.4
20260507173040 62 287 0.0 4.0 0.00 0.60 0.15 91 1014.6
20260507171523 61 254 1.0 5.0 0.00 0.60 0.15 93 1014.7
20260507170023 61 227 1.0 5.0 0.00 0.60 0.15 92 1014.7
20260507164530 61 268 0.0 4.0 0.00 0.60 0.15 93 1014.8
20260507163018 60 256 1.0 4.0 0.00 0.60 0.15 95 1014.5
20260507161518 60 178 1.0 6.0 0.00 0.60 0.15 94 1014.4
20260507160024 60 143 0.0 7.0 0.00 0.60 0.15 95 1014.1
20260507154514 61 96 0.0 6.0 0.00 0.60 0.15 94 1014.1
20260507153012 62 240 1.0 5.0 0.00 0.60 0.15 94 1013.9
20260507151510 62 250 0.0 4.0 0.00 0.60 0.15 95 1013.7
20260507150010 62 256 1.0 3.0 0.00 0.60 0.15 97 1013.5
20260507144509 61 154 1.0 5.0 0.00 0.60 0.15 98 1013.5
20260507143017 61 83 0.0 2.0 0.00 0.60 0.15 98 1013.5
20260507141515 60 224 0.0 2.0 0.00 0.60 0.15 98 1013.5
20260507140004 60 236 0.0 2.0 0.00 0.60 0.15 99 1013.2
20260507134502 60 224 0.0 3.0 0.00 0.60 0.15 99 1013.1
20260507133100 60 123 0.0 2.0 0.00 0.60 0.15 99 1013.2
20260507131605 60 124 1.0 3.0 0.00 0.60 0.15 99 1012.9
20260507130057 60 80 0.0 2.0 0.00 0.60 0.15 99 1012.5
20260507124603 60 333 1.0 6.0 0.00 0.60 0.15 99 1012.4
20260507123052 60 190 0.0 2.0 0.00 0.60 0.15 99 1012.5
20260507121552 60 218 1.0 3.0 0.00 0.60 0.15 99 1012.0
20260507120049 59 90 0.0 2.0 0.00 0.60 0.15 99 1011.3
20260507114604 59 90 0.0 3.0 0.00 0.60 0.15 99 1011.5
20260507113103 59 90 1.0 3.0 0.01 0.60 0.15 99 1011.3
20260507111546 59 87 0.0 3.0 0.01 0.60 0.15 98 1011.2
20260507110040 60 126 2.0 8.0 0.01 0.60 0.15 98 1011.3
20260507104542 61 85 1.0 3.0 0.01 0.60 0.15 98 1010.8
20260507103033 62 237 1.0 8.0 0.00 0.59 0.14 98 1010.5
20260507101531 64 240 1.0 3.0 0.04 0.59 0.14 99 1010.1
20260507100030 64 88 0.0 3.0 0.05 0.59 0.14 100 1009.7
20260507094533 64 94 0.0 4.0 0.07 0.59 0.14 99 1009.7
20260507093033 64 94 0.0 1.0 0.08 0.59 0.14 99 1009.8
20260507091527 64 86 0.0 2.0 0.04 0.55 0.10 99 1009.8
20260507090025 64 63 1.0 5.0 0.03 0.54 0.09 99 1009.6
20260507084529 64 101 0.0 3.0 0.01 0.52 0.07 99 1009.8
20260507083022 65 212 0.0 2.0 0.00 0.51 0.06 100 1009.3
20260507081533 65 223 0.0 2.0 0.00 0.51 0.06 99 1009.2
20260507080019 65 232 0.0 1.0 0.03 0.51 0.06 100 1009.2
20260507074518 65 240 0.0 2.0 0.05 0.51 0.06 100 1009.5
20260507073017 66 30 0.0 2.0 0.05 0.51 0.06 100 1009.5
20260507071516 66 312 0.0 3.0 0.05 0.51 0.06 99 1009.3
20260507070015 66 328 2.0 4.0 0.02 0.48 0.03 100 1009.3
20260507064512 66 109 0.0 1.0 0.00 0.46 0.01 100 1010.3
20260507063012 66 109 0.0 3.0 0.00 0.46 0.01 100 1010.0
20260507061510 66 109 0.0 2.0 0.01 0.46 0.01 100 1010.4
20260507060008 66 109 0.0 3.0 0.01 0.46 0.01 99 1010.5
20260507054509 66 112 0.0 1.0 0.01 0.46 0.01 99 1011.0
20260507053006 66 112 0.0 2.0 0.02 0.46 0.01 99 1011.0
20260507051505 66 112 0.0 3.0 0.01 0.45 0.00 99 1011.1
20260507050003 66 112 0.0 2.0 0.05 0.45 0.00 99 1010.8
20260507044500 66 85 1.0 2.0 0.09 0.45 0.45 99 1010.7
20260507043123 67 85 0.0 4.0 0.10 0.44 0.44 99 1011.0
20260507041604 67 98 0.0 3.0 0.12 0.44 0.44 99 1011.6
20260507040059 67 98 0.0 2.0 0.12 0.40 0.40 99 1010.7
20260507034559 67 98 0.0 2.0 0.16 0.36 0.36 99 1011.0
20260507033057 67 98 0.0 2.0 0.15 0.34 0.34 99 1010.6
20260507031556 67 89 0.0 3.0 0.14 0.32 0.32 99 1011.8
20260507030056 67 88 1.0 2.0 0.12 0.27 0.27 99 1012.4
20260507024557 67 88 0.0 2.0 0.06 0.20 0.20 98 1012.1
20260507023108 67 88 0.0 4.0 0.05 0.19 0.19 97 1011.5
20260507021554 69 297 1.0 3.0 0.03 0.17 0.17 96 1011.5
20260507020059 71 317 1.0 8.0 0.00 0.14 0.14 99 1010.9
20260507014556 71 183 0.0 2.0 0.00 0.14 0.14 99 1010.8
20260507013052 71 183 0.0 1.0 0.00 0.14 0.14 99 1010.4
20260507011552 71 183 0.0 0.0 0.00 0.14 0.14 99 1010.5
20260507010051 72 183 0.0 2.0 0.00 0.14 0.14 99 1009.9
20260507004550 72 188 0.0 0.0 0.00 0.14 0.14 99 1010.6
20260507003056 72 188 0.0 0.0 0.00 0.14 0.14 98 1010.5
20260507001609 72 188 0.0 0.0 0.00 0.14 0.14 98 1010.3
20260507000047 72 188 0.0 0.0 0.00 0.14 0.14 98 1010.2
20260506234553 72 188 0.0 1.0 0.00 0.14 0.14 98 1010.0
20260506233044 72 188 0.0 1.0 0.00 0.14 0.14 98 1010.5
20260506231544 72 202 0.0 2.0 0.00 0.14 0.14 98 1011.0
20260506230053 73 198 0.0 5.0 0.00 0.14 0.14 98 1011.1
20260506224542 72 144 0.0 2.0 0.01 0.14 0.14 98 1010.9
20260506223041 72 186 0.0 2.0 0.01 0.14 0.14 97 1010.7
20260506221549 72 190 0.0 1.0 0.01 0.14 0.14 97 1010.6
20260506220039 72 172 0.0 1.0 0.07 0.14 0.14 97 1010.9
20260506214539 72 66 0.0 4.0 0.13 0.13 0.13 96 1011.0
20260506213037 73 175 0.0 3.0 0.13 0.13 0.13 96 1010.9
20260506211536 73 134 0.0 3.0 0.13 0.13 0.13 95 1011.2
20260506210049 74 327 0.0 3.0 0.07 0.07 0.07 92 1011.5
20260506204534 75 175 0.0 2.0 0.00 0.00 0.00 89 1011.3